Location: Cisewo
(53.3833°N, 14.9000°E)
Time: 13:43:40
(UTC+00:00)

USA 229 - Pass Details

Date: 29 July 2021
Orbit: 956 x 1256 km, 63.5° (Epoch: 08 August)

Event Time Altitude Azimuth Distance (km) Brightness Sun altitude
Rises 22:14:10 0° 313° (NW) 3,939 7.6 -17.2°
Reaches altitude 10° 22:16:48 10° 310° (NW) 3,020 6.8 -17.3°
Maximum altitude 22:23:54 59° 233° (SW) 1,350 4.1 -17.5°
Enters shadow 22:28:23 26° 164° (SSE) 2,205 4.7 -17.6°
